Wetterübersicht - Weilheim in Oberbayern     570 m über NN
47°50'16'' N 11°08'49'' - - Zeitangaben in MEZ
Datum Dienstag, 25. Juni 2019
Aktualisierung von 00:10 Uhr bis 23:50 Uhr alle 10 Minuten.
Zeit 17:40 (-1h = UTC-Zeit)
Temperatur Außen aktuell
32,4 °C
Min.(04:58)
15,1 °C
Max.(16:03)
33,8 °C
Durchschnitt
24,7 °C
Luftfeuchte Außen aktuell
39 %
Min.(15:54)
36 %
Max.(06:29)
92 %
Durchschnitt
64 %
Taupunkt aktuell
16,6 °C
Min.(04:37)
13,2 °C
Max.(13:15)
20,4 °C
Durchschnitt
16,5 °C
Luftdruck
aktuell
1018,3 hPa
gleichbleibend

0,0 hPa/3h
Min.(03:27)
1016,6 hPa
Max.(15:27)
1018,4 hPa
Durchschnitt
1017,6 hPa
+0,1 hPa/1h 0,0 hPa/2h +0,3 hPa/6h +1,1 hPa/12h +0,8 hPa/24h
Solarstrahlung aktuell
155 W/m²
Max.(11:30)
962 W/m²
Durchschnitt
566 W/m²
Wettervorhersage veränderlich
Wettervorhersage VantagePro Zunehmende Bewölkung mit wenig Temperaturänderung. Niederschläge möglich innerhalb der nächsten 24 bis 48 Stunden.
Persönliches Wohlbefinden hohe Wärmebelastung (33)
Windchill aktuell
32,4
Min.(05:00)
15,1
Max.(16:04)
33,8
Durchschnitt
24,7
Wind Böen aktuell
3,2 (1)
Max-Tag(14:42)
N-NO 14,5 (3)
Durchschnitt
2,4 (1)
Max Wind Böen letzte Stunde
8,0
letzten 3 Stunden
14,5
letzten 6 Stunden
14,5
Windgeschwindigkeit aktuell
0,0 (0)
Max.(14:42)
N-NO 8,0 (2)
Durchschnitt
1,1 (1)
Windrichtung 22 / N-NO dominierend
N-NO
Niederschlag
letzte Stunde 0,0
letzten 6 Stunden 0,0
aktueller Tag 0,0
aktuelle Woche 0,0
aktueller Monat 48,8
letzter Monat 177,8
Juni Vorjahr 129,8
aktuelles Jahr 454,2
Regen / Jahr 87
Schneehöhe 22,0 10.01.2019 08:09
Trockenzeiten
letzter Regen >0,2 l/m² 23.06.2019 um 07:43 Uhr
Trocken seit 2 Tage, 9 Stunden, 57 Minuten
Längste Trockenzeit 05.09.2015, 07:01 Uhr
bis
15.01.2016, 00:17 Uhr
Dauer: 131 Tage, 17 Stunden, 16 Minuten
Dauerfrost
Letzte Dauerfrostperiode 29.03.2019, 06:39 Uhr
bis
29.03.2019, 07:07 Uhr
Dauer: 28 Minuten
Längste Dauerfrostperiode 01.01.2017, 17:12 Uhr
bis
16.02.2017, 08:37 Uhr
Dauer: 45 Tage, 15 Stunden, 24 Minuten
Sonne
Sonnenaufgang04:17
Sonnenzenit12:18
Sonnenhöchststand65,549
Sonnenintensität aktuell543
Sonnenuntergang20:18
Sonnenaufgang morgen04:17 26. Juni 2019
Tageslänge16:00
Bewölkungsgradbewölkt 63
Sonnenschein akt. Tag10:07 Stunden
Sonnenschein letzte Stunde3
Sonnenschein Woche (bis Vortag)10:09 Stunden
Sonnenschein Monat (bis Vortag)163:35 Stunden
Mond
Alter des Mondes22 Tage, 9 Stunden, 48 Minuten
Mondaufgang00:35
Mondzenit06:18
Monduntergang12:10
Mondphase-47%
(0% = Neumond, 100% = Vollmond)
nächster Vollmond22:39 16. Juli 2019
nächster Neumond20:17 2. Juli 2019
Die dargestellten Werte repräsentieren die Daten des aktuellen Tages! Der Luftdruck ist auf Meereshöhe bezogen!
Die Mond-/Sonnen-Daten beziehen sich auf die Standortkoordinaten von 47° 50' 16" Nord - 11° 8' 49" Ost
Zeit --> Mitteleuropäische Zeit
Die Wettervorhersage wurde berechnet - ohne Gewähr!

          Aussen-    Aussen                                                    Wind                              
Zeit     tempera.   Feuchte   Luftdruck   Taupunkt  Windchill      Wind       richtung     Sonne        Regen        
----------------------------------------------------------------------------------------------------------------------------
00:00     19,1      80  1017,5    15,6    19,1      0,0        N       0     0,0   
01:00     18,0      82  1017,1    14,9    18,0      0,0        N       0     0,0   
02:00     17,1      85  1017,0    14,6    17,1      0,0        N       0     0,0   
03:00     16,2      87  1016,7    14,0    16,2      0,0        N       0     0,0   
04:00     15,6      88  1016,9    13,6    15,6      0,0        N       0     0,0   
05:00     15,1      89  1017,0    13,3    15,1      0,0        N      14     0,0   
06:00     15,3      91  1017,3    13,8    15,3      0,0        N      35     0,0   
07:00     18,6      90  1017,4    16,9    18,6      0,0        N     406     0,0   
08:00     23,4      69  1017,4    17,4    23,4      0,0        N     596     0,0   
09:00     26,9      59  1017,8    18,2    26,9      1,6        W     740     0,0   
10:00     28,8      52  1017,7    17,9    28,8      0,0     N-NO     872     0,0   
11:00     30,4      49  1018,0    18,5    30,4      0,0     O-SO     788     0,0   
12:00     30,9      45  1018,1    17,6    30,9      4,8       NO     949     0,0   
13:00     32,2      46  1018,2    19,1    32,2      4,8       NO     874     0,0   
14:00     33,6      38  1018,2    17,3    33,6      4,8     N-NO     840     0,0   
15:00     33,4      40  1018,3    17,9    33,4      0,0     N-NO     575     0,0   
16:00     33,7      37  1018,2    17,0    33,7      1,6     W-NW     568     0,0   
17:00     33,2      37  1018,3    16,5    33,2      0,0     N-NW     137     0,0   
----------------------------------------------------------------------------------------------------------------------------
Durch.    24,7      64  1017,6    16,5    24,7      1,1                           0,0

Min.      15,1      36  1016,6    13,2    15,1
Zeit       04:58     15:54      03:27       04:37     05:00

Max.      33,8      92  1018,4    20,4                 14,5              962
Zeit       16:03     06:29      15:27       13:15                  14:42                  11:30

© 1999-2016 Werner Krenn / Mischa Thurnherr - Wetterstation Bedien- und Auswertesoftware - V2.98.4

Jahres-Eistage (Tmax < 0°C) 6 Vorjahres-Eistage (Tmax < 0°C) 12
Jahres-Frostage (Tmin < 0°C) 51 Vorjahres-Frostage (Tmin < 0°C) 77
Kalte Tage des Jahres (Tmax < 10°C) 67 Kalte Tage des Vorjahres (Tmax < 10°C) 106
Jahres-Sommertage (Tmax >= 25°C) 18 Vorjahres-Sommertage (Tmax >= 25°C) 92
Heiße Tage des Jahres (Tmax >= 30°C) 7 Heiße Tage Vorjahr (Tmax >= 30°C) 21